User: anonymous   Login
Location: Brno
(49.2000°N, 16.6330°E)
Time: 16:34:59
(UTC+01:00)
Language:

BREEZE M DEB (TANK) - Orbit

View from above orbital plane
View from above orbital plane
View from above satellite
View from above satellite

Ground track
Ground track

The orbit data is extracted from the following two-line orbital elements,

1 28359U 04022B   14355.99239130  .00007110  00000-0  10483-2 0  3158
2 28359 049.5097 229.1570 4701424 179.4598 323.6642 06.12707848229208
Epoch (UTC): 21 December 2014 23:49:02
Eccentricity: 0.4701424
inclination: 49.5097°
perigee height: 306 km
apogee height: 12168 km
right ascension of ascending node: 229.1570°
argument of perigee: 179.4598°
revolutions per day: 6.12707848
mean anomaly at epoch: 323.6642°
orbit number at epoch: 22920

The dashed part of the orbit path shows where the satellite is in the earth's shadow,  

DLR